Wind_Speed
20 20 21 23 19 11 10 9 8 7 7 10 13 12 11 10 9 12 14 13 15 14 9 8 9 7 3 6 6 10 8 11 12 12 14 17 20 21 23 24 22 24 24 25 24
24 22 22 16 10 10 11 11 10 10 9 11 14 13 11 8 8 10 12 12 16 16 11 11 12 11 5 5 2 6 7 10 14 13 14 14 18 19 21 20 21 22 24 25 24
23 24 20 17 15 13 12 11 10 11 10 11 14 13 11 7 7 10 11 13 15 17 14 12 12 12 14 10 4 9 5 6 8 11 12 12 15 15 17 18 20 21 21 21 23
22 22 21 18 17 16 14 13 12 11 11 11 13 11 10 8 8 9 11 13 13 12 11 10 11 9 12 8 7 8 8 2 4 7 7 10 15 15 13 15 16 16 17 21 22
28 24 20 21 20 18 16 14 13 12 11 11 11 11 11 9 9 8 9 11 12 12 10 13 10 10 13 9 5 8 6 5 5 5 5 9 10 14 10 10 14 14 14 18 22
27 27 23 22 22 20 18 15 14 12 12 12 11 12 11 11 10 10 10 12 12 12 11 14 12 13 14 11 7 1 8 4 5 6 5 7 9 8 7 6 11 13 15 14 18
28 27 24 24 23 22 20 17 13 12 12 12 12 13 13 12 12 12 12 12 13 12 12 16 13 14 12 13 9 1 5 8 7 7 5 3 6 7 8 5 7 12 16 18 20
33 32 29 25 25 23 23 20 19 14 12 13 13 14 15 14 13 14 13 13 14 13 13 12 12 12 14 13 14 6 4 9 8 8 7 3 2 2 5 5 5 8 13 20 24
33 33 32 30 28 26 24 24 22 19 15 14 14 15 16 15 14 14 14 12 13 13 12 12 12 11 13 14 15 14 11 11 7 6 5 4 7 8 5 5 5 9 13 19 26
33 32 31 31 31 29 25 25 23 24 23 17 16 16 16 17 17 17 14 14 12 12 12 12 11 13 15 15 16 15 14 14 12 9 8 9 9 9 4 7 7 9 14 19 23
35 33 32 32 32 30 27 26 23 22 22 22 18 17 17 18 20 20 18 17 15 14 12 10 11 13 16 16 18 16 13 14 16 12 8 10 8 6 10 12 14 17 14 19 22
36 35 33 32 33 31 29 27 26 24 23 24 18 18 18 19 20 22 21 20 18 16 14 12 13 17 16 16 16 15 14 16 17 14 13 14 10 12 11 13 12 16 16 21 26
36 36 35 33 33 31 30 29 28 26 24 23 21 19 19 20 20 22 22 21 20 19 16 14 17 19 18 17 15 15 13 16 18 17 18 18 14 11 14 16 18 21 23 28 27
37 35 35 35 36 33 29 30 30 27 26 25 26 24 21 20 21 21 22 22 21 21 19 19 20 20 18 18 17 17 15 18 22 19 22 21 19 13 18 17 18 20 20 20 21
39 38 37 36 36 35 34 35 33 29 29 29 29 27 24 20 22 22 23 23 23 23 22 21 21 20 19 18 18 20 17 21 25 26 21 23 22 20 21 19 17 17 17 23 25
34 36 36 37 37 36 35 37 37 36 33 31 30 30 27 24 23 23 23 24 24 22 23 23 21 21 21 19 17 18 21 22 24 23 20 18 14 17 18 17 17 18 21 23 24
30 34 35 35 35 35 36 37 37 39 35 35 31 30 31 28 27 24 24 23 24 23 22 22 21 20 21 19 17 16 16 18 20 20 16 18 14 14 17 16 14 16 19 22 23
24 28 30 31 32 34 36 38 39 35 35 35 35 31 28 30 28 28 27 26 25 24 24 23 22 21 21 18 17 18 18 17 18 16 16 15 15 15 15 14 13 14 18 23 21
25 26 26 28 29 31 32 34 34 35 37 35 34 33 30 29 31 29 27 27 25 23 21 23 23 22 21 20 21 20 20 19 21 20 16 15 15 15 12 13 15 17 20 19 19
27 27 29 28 28 30 31 30 28 30 35 37 35 35 33 33 31 31 28 26 26 25 24 23 22 22 22 22 23 23 21 21 19 16 17 14 14 14 12 12 14 18 16 14 22
30 30 28 32 32 31 29 27 25 26 30 38 39 36 35 35 35 31 29 26 27 25 26 24 23 24 24 25 23 23 23 22 20 20 17 14 12 12 8 9 10 10 16 21 21
27 28 30 30 34 34 31 28 26 24 26 35 41 40 37 37 35 34 30 25 28 27 27 24 24 24 26 28 25 26 22 20 22 19 15 13 9 6 9 11 10 11 15 19 20
31 30 29 31 33 33 35 32 28 26 26 33 40 42 42 39 35 34 32 31 28 26 28 27 27 26 26 28 28 26 24 25 22 18 16 13 8 5 5 8 13 14 15 19 21
30 32 33 32 34 34 34 33 30 28 28 33 37 42 42 42 37 35 33 32 29 26 28 30 28 27 29 26 23 22 23 25 23 20 17 16 13 12 10 10 12 15 19 22 23
26 31 35 36 35 35 34 34 31 31 31 32 33 37 40 40 40 35 33 31 29 24 31 34 31 28 31 30 27 26 28 27 25 23 21 20 22 20 19 19 17 18 21 24 27
19 24 28 34 36 35 35 35 35 37 35 33 31 32 37 40 40 38 34 32 30 25 29 34 30 28 34 32 30 28 27 26 23 22 23 21 20 23 25 24 20 21 22 26 30
14 21 26 26 31 33 34 34 38 40 39 37 33 32 31 37 39 37 35 31 30 25 31 30 28 26 25 35 34 31 28 24 22 23 24 23 26 27 26 23 20 22 24 27 32
Wind_Direction
215 229 240 253 262 260 247 235 247 255 255 229 227 256 267 245 229 216 212 193 205 225 212 217 215 234 171 129 106 120 117 100 98 81 71 66 57 49 45 41 38 35 35 34 32
229 234 246 259 243 246 248 239 243 251 247 234 231 253 257 239 222 207 212 197 204 220 213 219 207 211 157 126 133 181 144 114 112 98 89 66 64 52 48 44 38 35 33 32 29
233 238 238 246 239 235 242 239 243 249 250 238 232 242 244 227 197 195 199 196 201 214 209 215 200 191 163 165 186 194 205 112 97 103 98 80 67 58 52 44 38 34 31 28 30
226 232 244 236 233 236 241 244 246 247 248 241 236 234 233 214 192 181 182 186 189 198 189 186 183 169 157 159 189 182 233 280 100 106 118 93 78 57 36 42 41 36 29 30 29
227 230 231 232 232 233 232 239 241 247 245 238 232 231 224 213 201 196 192 185 185 188 152 161 156 147 146 152 194 219 240 278 121 100 128 114 86 76 45 31 36 25 21 27 23
223 223 228 235 231 231 224 228 235 242 244 236 229 228 223 217 210 203 203 200 196 190 161 150 158 153 159 155 153 253 259 217 176 133 120 100 76 74 65 40 24 18 2 9 13
224 225 228 233 235 228 218 219 229 233 242 240 228 227 223 219 214 213 208 208 204 204 192 162 169 166 168 157 149 170 253 236 196 181 156 150 69 57 59 52 13 4 359 355 359
226 228 230 231 234 231 220 222 227 232 240 241 234 226 224 219 215 217 214 207 207 204 205 192 179 178 187 178 177 228 202 179 162 184 192 233 48 12 2 9 358 346 356 347 348
228 229 230 231 235 236 229 225 228 233 237 241 236 227 223 218 215 217 214 213 213 207 206 216 198 212 217 212 202 205 207 204 231 229 223 244 295 284 301 338 324 328 341 344 339
230 231 232 232 235 237 235 232 233 238 237 240 236 231 225 217 214 216 213 214 217 214 211 212 211 209 214 215 223 225 205 212 230 250 273 284 283 270 314 324 3 340 344 339 326
230 231 232 233 234 236 235 233 233 234 232 231 233 233 228 223 217 216 216 214 218 223 218 215 209 214 215 215 225 231 223 231 247 257 260 285 284 300 316 343 349 347 344 328 298
231 232 233 233 235 235 234 234 233 232 232 226 234 235 228 227 221 218 219 217 212 220 221 220 220 225 223 225 234 236 233 239 249 262 275 297 302 283 305 315 328 319 311 301 308
231 232 232 234 235 235 234 235 235 233 229 229 230 235 228 227 225 222 220 219 219 215 216 218 226 234 233 237 242 243 240 247 248 262 271 293 302 279 290 299 306 319 317 314 319
230 231 233 234 237 236 234 235 236 235 232 230 228 232 230 229 227 222 223 220 219 219 214 216 226 236 243 249 254 255 247 252 253 256 266 289 293 295 292 297 317 315 317 315 319
230 230 232 233 236 237 236 236 236 234 234 229 231 228 231 233 230 223 221 221 221 220 219 222 230 237 239 245 255 259 251 246 255 266 277 283 281 288 296 307 317 315 311 310 322
231 232 233 235 236 237 235 236 236 235 233 233 228 230 231 232 234 231 225 221 224 224 226 227 227 233 238 243 248 255 257 255 259 266 275 279 277 279 285 296 303 306 317 320 324
231 232 233 234 236 235 234 234 234 232 229 230 230 227 228 229 233 231 229 227 229 226 227 231 229 230 236 241 245 247 250 255 266 271 265 268 281 276 284 296 310 320 324 319 314
232 231 231 234 235 236 235 234 233 230 229 230 229 227 227 227 232 234 230 225 226 225 222 227 230 231 234 233 235 241 246 256 262 272 263 266 272 283 296 311 331 331 318 310 325
237 235 232 230 229 231 231 232 233 231 228 228 226 226 225 227 230 232 232 230 224 224 223 229 232 233 234 230 229 241 252 256 253 258 259 263 272 284 297 324 339 335 319 328 338
237 237 234 231 229 230 233 234 234 231 226 224 222 224 224 226 227 230 228 228 230 226 223 221 225 230 234 233 234 239 248 249 246 249 254 259 269 278 315 356 346 329 321 337 353
234 233 234 231 229 231 233 234 233 232 226 219 220 221 222 224 226 227 227 226 227 228 227 225 224 228 231 233 234 237 247 248 247 253 260 262 272 299 337 355 358 345 344 344 341
239 235 231 228 230 235 234 232 231 229 227 221 218 218 220 222 225 227 225 221 225 229 233 228 226 225 232 237 235 238 236 240 247 257 263 268 289 325 347 347 348 329 342 342 339
242 240 235 232 231 232 230 231 229 228 225 225 219 218 220 222 221 226 228 226 223 226 233 234 234 226 231 238 242 236 233 238 247 255 260 264 253 264 315 320 328 330 330 325 331
243 240 238 236 232 231 228 229 229 227 228 227 223 221 221 224 222 223 227 228 230 230 234 237 235 233 235 234 238 233 230 237 244 254 259 260 260 286 295 305 312 316 315 318 321
241 240 236 235 235 231 229 225 223 222 226 229 226 226 222 224 227 223 224 225 226 227 227 233 235 233 221 221 224 222 225 233 237 247 254 262 275 286 298 307 302 301 303 310 315
238 236 238 234 232 232 228 224 218 217 221 226 226 230 226 222 227 229 226 226 227 229 227 228 230 229 216 217 227 224 230 240 247 251 257 268 274 285 291 300 296 295 298 307 312
247 237 234 237 232 231 229 225 222 217 218 222 222 227 228 221 223 228 227 226 222 222 217 217 222 222 227 217 218 226 229 238 245 248 257 271 280 287 293 295 291 292 294 300 308
Height
5895 5896 5899 5900 5902 5904 5906 5908 5910 5911 5912 5913 5915 5916 5917 5917 5917 5919 5922 5927 5929 5930 5933 5935 5935 5936 5937 5939 5940 5941 5943 5943 5941 5941 5940 5938 5936 5935 5934 5933 5932 5930 5929 5928 5926
5892 5894 5897 5899 5901 5903 5904 5906 5908 5909 5911 5912 5913 5914 5916 5915 5915 5918 5922 5925 5927 5929 5932 5934 5936 5937 5938 5939 5941 5941 5943 5943 5942 5941 5940 5940 5938 5937 5936 5935 5933 5932 5930 5928 5927
5890 5892 5894 5897 5899 5901 5902 5904 5906 5907 5909 5910 5911 5912 5914 5914 5916 5917 5920 5923 5926 5927 5931 5933 5936 5937 5939 5941 5942 5942 5942 5944 5944 5942 5941 5941 5940 5939 5938 5936 5934 5932 5932 5930 5928
5886 5889 5891 5894 5896 5898 5899 5901 5903 5905 5906 5908 5909 5910 5912 5914 5917 5917 5919 5921 5924 5926 5930 5932 5934 5937 5939 5940 5941 5942 5943 5944 5945 5944 5943 5942 5941 5941 5939 5938 5935 5934 5933 5930 5929
5883 5886 5888 5891 5894 5896 5898 5899 5900 5903 5904 5906 5907 5908 5911 5912 5915 5916 5919 5920 5923 5925 5929 5931 5934 5936 5938 5939 5941 5942 5944 5945 5945 5945 5944 5942 5942 5941 5941 5939 5935 5934 5933 5931 5930
5879 5882 5885 5887 5890 5892 5895 5897 5898 5900 5902 5904 5905 5907 5909 5911 5913 5915 5917 5919 5921 5924 5928 5931 5932 5935 5937 5939 5941 5942 5943 5945 5945 5946 5945 5945 5944 5942 5942 5940 5937 5935 5934 5932 5930
5874 5878 5881 5883 5885 5888 5892 5894 5896 5898 5900 5902 5904 5905 5907 5910 5911 5914 5916 5918 5920 5923 5926 5930 5932 5934 5936 5938 5940 5942 5943 5943 5945 5945 5945 5945 5944 5943 5942 5940 5939 5936 5935 5932 5931
5868 5873 5877 5880 5882 5885 5888 5890 5893 5896 5898 5900 5902 5904 5905 5908 5910 5912 5914 5917 5919 5922 5924 5928 5931 5933 5935 5937 5938 5940 5941 5942 5943 5945 5945 5945 5944 5943 5942 5941 5939 5937 5935 5932 5930
5864 5868 5871 5875 5878 5881 5884 5887 5890 5893 5895 5897 5900 5902 5903 5906 5908 5910 5913 5915 5918 5920 5922 5925 5930 5932 5934 5936 5937 5937 5940 5942 5941 5942 5943 5944 5944 5943 5942 5941 5939 5938 5936 5934 5930
5857 5862 5865 5869 5873 5876 5880 5884 5886 5889 5892 5894 5897 5900 5901 5904 5905 5908 5911 5914 5916 5918 5921 5924 5927 5930 5932 5933 5935 5935 5938 5939 5939 5941 5941 5942 5942 5941 5941 5940 5939 5938 5937 5934 5929
5852 5856 5860 5864 5867 5872 5876 5880 5884 5887 5888 5891 5893 5896 5897 5900 5903 5905 5909 5912 5914 5917 5919 5922 5926 5927 5929 5931 5932 5934 5936 5937 5937 5939 5941 5941 5940 5940 5939 5938 5937 5936 5935 5932 5926
5845 5849 5854 5858 5861 5867 5871 5875 5878 5882 5884 5887 5890 5892 5894 5896 5900 5903 5906 5910 5912 5915 5917 5921 5922 5924 5926 5929 5930 5932 5934 5934 5935 5937 5939 5940 5939 5938 5937 5936 5935 5934 5933 5928 5923
5838 5843 5847 5852 5855 5861 5866 5869 5872 5876 5880 5883 5886 5888 5891 5894 5896 5900 5904 5906 5909 5912 5915 5918 5919 5920 5923 5926 5928 5930 5931 5932 5934 5935 5936 5936 5937 5937 5935 5934 5933 5931 5928 5926 5924
5831 5836 5840 5845 5851 5855 5860 5863 5866 5872 5876 5880 5882 5884 5888 5890 5893 5896 5899 5903 5906 5909 5911 5914 5916 5918 5922 5924 5926 5927 5930 5930 5931 5933 5934 5933 5934 5935 5933 5932 5931 5928 5926 5925 5922
5823 5828 5833 5839 5843 5848 5854 5857 5861 5866 5870 5875 5877 5880 5884 5888 5889 5892 5895 5898 5901 5905 5909 5912 5914 5916 5919 5921 5923 5924 5927 5928 5928 5929 5930 5931 5931 5931 5929 5929 5928 5926 5925 5923 5919
5816 5820 5826 5831 5835 5841 5846 5849 5855 5861 5864 5867 5871 5875 5879 5883 5884 5888 5891 5894 5897 5901 5905 5907 5910 5913 5915 5917 5920 5922 5923 5925 5926 5926 5927 5926 5928 5927 5927 5926 5925 5924 5921 5919 5916
5809 5814 5819 5823 5829 5833 5838 5842 5848 5851 5859 5862 5866 5871 5875 5878 5880 5884 5887 5890 5894 5898 5901 5903 5907 5909 5912 5915 5917 5918 5920 5921 5922 5922 5922 5923 5924 5924 5923 5923 5923 5921 5919 5915 5913
5804 5807 5812 5817 5822 5825 5830 5835 5839 5846 5851 5855 5861 5866 5870 5873 5876 5879 5882 5885 5888 5893 5896 5898 5902 5905 5908 5911 5913 5914 5915 5917 5918 5919 5919 5920 5920 5920 5920 5920 5919 5918 5915 5911 5909
5799 5802 5807 5811 5815 5819 5823 5826 5833 5838 5844 5849 5855 5859 5863 5866 5870 5873 5877 5881 5884 5888 5893 5895 5897 5900 5903 5906 5909 5910 5912 5913 5914 5915 5916 5917 5917 5917 5917 5917 5915 5914 5911 5909 5905
5793 5796 5801 5805 5809 5812 5816 5822 5826 5830 5835 5842 5847 5852 5856 5860 5864 5868 5872 5877 5880 5884 5887 5890 5893 5895 5898 5901 5904 5906 5909 5910 5910 5912 5912 5913 5914 5914 5915 5914 5911 5909 5907 5905 5902
5785 5789 5793 5798 5802 5805 5810 5816 5819 5823 5828 5833 5838 5844 5849 5853 5857 5862 5867 5874 5876 5879 5882 5885 5888 5892 5894 5896 5899 5902 5904 5906 5907 5908 5910 5911 5911 5912 5912 5911 5909 5908 5904 5901 5898
5778 5782 5786 5790 5795 5799 5804 5808 5813 5816 5820 5824 5830 5836 5841 5846 5851 5856 5862 5868 5871 5874 5877 5881 5884 5886 5889 5891 5894 5897 5900 5902 5903 5906 5907 5908 5910 5908 5907 5908 5907 5905 5902 5898 5894
5771 5775 5779 5783 5787 5790 5796 5801 5806 5810 5813 5816 5822 5828 5833 5838 5846 5850 5856 5860 5865 5869 5872 5876 5879 5881 5884 5887 5890 5893 5896 5898 5900 5902 5903 5905 5907 5906 5905 5905 5904 5902 5899 5896 5893
5764 5767 5771 5775 5779 5783 5788 5794 5799 5803 5807 5810 5815 5820 5826 5832 5838 5844 5849 5855 5859 5864 5867 5869 5873 5877 5881 5884 5887 5890 5892 5894 5897 5898 5899 5901 5901 5902 5901 5900 5900 5898 5895 5892 5890
5755 5758 5762 5766 5771 5776 5781 5786 5791 5797 5800 5804 5808 5814 5820 5826 5831 5838 5843 5848 5854 5858 5860 5863 5868 5872 5875 5878 5881 5884 5887 5890 5892 5894 5895 5896 5897 5897 5896 5896 5895 5893 5890 5889 5886
5747 5750 5754 5757 5762 5768 5773 5779 5783 5788 5793 5797 5804 5807 5812 5820 5825 5831 5837 5842 5847 5852 5854 5858 5863 5867 5871 5874 5876 5879 5882 5885 5887 5889 5890 5891 5892 5891 5891 5890 5889 5888 5886 5885 5882
5739 5742 5746 5749 5754 5759 5765 5771 5775 5779 5785 5789 5795 5800 5806 5813 5819 5824 5830 5836 5841 5845 5849 5854 5858 5862 5865 5869 5872 5874 5877 5880 5882 5883 5884 5886 5887 5886 5885 5885 5884 5881 5880 5880 5878